period_start,C,m1,H,J0,J1,J2,J3,J4,J5,JA,JB,JC,JD,JJ,JK,JN,#
2016-09-04 00:02:47,0.06,3.53,0.00,27.65,31.02,33.65,14.40,48.01,1027.85,2017.05,2275.00,2285.77,2590.03,600.00,593.22,48.09,0000 0000 0000 0000 000000
2016-09-04 00:07:48,0.08,3.53,0.00,27.67,31.02,33.68,14.37,48.02,1027.85,2017.09,2274.03,2285.03,2589.24,599.92,593.26,48.14,0000 0000 0000 0000 000000
2016-09-04 00:12:49,0.07,3.54,0.00,27.69,31.02,33.66,14.38,47.95,1027.85,2017.29,2273.11,2284.76,2588.98,599.81,593.01,48.19,0000 0000 0000 0000 000000
2016-09-04 00:17:51,0.07,3.54,0.00,27.70,31.03,33.67,14.37,47.90,1027.85,2017.32,2272.26,2284.04,2588.26,600.23,593.33,48.24,0000 0000 0000 0000 000000
2016-09-04 00:22:52,0.04,3.54,0.00,27.70,31.03,33.67,14.34,48.02,1027.85,2017.22,2271.30,2283.64,2587.88,599.93,593.21,48.29,0000 0000 0000 0000 000000
2016-09-04 00:27:53,0.05,3.55,0.00,27.72,31.03,33.65,14.35,47.83,1027.85,2017.15,2270.31,2283.02,2587.09,599.90,593.12,48.34,0000 0000 0000 0000 000000
2016-09-04 00:32:54,0.09,3.55,0.00,27.72,31.03,33.66,14.36,47.99,1027.85,2017.18,2269.42,2282.47,2586.59,599.52,592.74,48.39,0000 0000 0000 0000 000000
2016-09-04 00:37:56,0.04,3.55,0.00,27.73,31.03,33.63,14.38,47.98,1027.84,2017.22,2268.54,2282.00,2586.00,599.46,592.59,48.44,0000 0000 0000 0000 000000
2016-09-04 00:42:57,0.08,3.56,0.00,27.75,31.04,33.66,14.32,47.93,1027.84,2017.33,2267.67,2281.28,2585.26,599.51,592.58,48.49,0000 0000 0000 0000 000000
2016-09-04 00:47:58,0.02,3.56,0.00,27.76,31.05,33.67,14.38,48.01,1027.83,2017.20,2266.79,2280.96,2584.87,600.23,593.34,48.54,0000 0000 0000 0000 000000
2016-09-04 00:52:59,0.09,3.56,0.00,27.78,31.05,33.67,14.30,47.92,1027.82,2017.43,2265.98,2280.31,2584.09,599.53,592.77,48.59,0000 0000 0000 0000 000000
2016-09-04 00:58:00,0.03,3.56,0.00,27.79,31.05,33.70,14.38,47.98,1027.77,2017.37,2265.16,2279.99,2583.87,599.41,592.44,48.64,0000 0000 0000 0000 000000
2016-09-04 01:03:02,0.07,3.57,0.00,27.82,31.05,33.63,14.39,47.72,1027.74,2017.26,2264.35,2279.40,2583.09,600.53,593.37,48.69,0000 0000 0000 0000 000000
2016-09-04 01:08:03,0.04,3.57,0.00,27.84,31.07,33.59,14.36,47.88,1027.62,2017.27,2263.64,2278.98,2582.73,600.21,593.06,48.74,0000 0000 0000 0000 000000
2016-09-04 01:13:04,0.06,3.57,0.00,27.86,31.07,33.61,14.41,48.03,1027.62,2017.18,2262.78,2278.29,2582.02,600.17,592.95,48.79,0000 0000 0000 0000 000000
2016-09-04 01:18:05,0.02,3.57,0.00,27.89,31.08,33.60,14.35,47.88,1027.61,2017.12,2261.94,2277.98,2581.44,600.45,593.16,48.84,0000 0000 0000 0000 000000
2016-09-04 01:23:07,0.06,3.58,0.00,27.91,31.10,33.58,14.38,47.92,1027.60,2017.04,2261.07,2277.22,2580.95,600.01,592.73,48.89,0000 0000 0000 0000 000000
2016-09-04 01:28:08,0.05,3.58,0.00,27.93,31.10,33.58,14.27,47.88,1027.62,2017.02,2260.23,2276.95,2580.25,599.75,592.39,48.94,0000 0000 0000 0000 000000
2016-09-04 01:33:09,0.06,3.58,0.00,27.96,31.12,33.56,14.40,47.87,1027.67,2017.00,2259.51,2276.20,2579.89,599.87,592.43,48.99,0000 0000 0000 0000 000000
2016-09-04 01:38:10,0.04,3.59,0.00,27.98,31.12,33.57,14.34,47.64,1027.65,2017.00,2258.78,2276.00,2579.12,600.10,592.62,49.05,0000 0000 0000 0000 000000
2016-09-04 01:43:12,0.05,3.59,0.00,28.00,31.15,33.60,14.41,47.88,1027.60,2017.00,2258.04,2275.42,2578.93,600.48,592.93,49.10,0000 0000 0000 0000 000000
2016-09-04 01:48:13,0.05,3.59,0.00,28.03,31.15,33.58,14.31,47.89,1027.64,2017.00,2257.28,2275.00,2578.17,599.78,592.17,49.15,0000 0000 0000 0000 000000
2016-09-04 01:53:14,0.02,3.59,0.00,28.05,31.17,33.60,14.42,47.93,1027.53,2017.00,2256.80,2274.74,2577.98,600.61,592.83,49.20,0000 0000 0000 0000 000000
2016-09-04 01:58:16,0.06,3.60,0.00,28.07,31.18,33.59,14.41,47.88,1027.49,2017.00,2256.07,2274.11,2577.40,600.55,592.74,49.25,0000 0000 0000 0000 000000
2016-09-04 02:03:17,0.02,3.60,0.00,28.08,31.20,33.61,14.33,47.79,1027.46,2017.00,2255.49,2273.99,2577.01,600.25,592.46,49.30,0000 0000 0000 0000 000000
2016-09-04 02:08:19,0.04,3.60,0.00,28.12,31.21,33.62,14.33,47.83,1027.46,2017.00,2254.98,2273.58,2576.73,599.95,592.07,49.35,0000 0000 0000 0000 000000
2016-09-04 02:13:20,0.05,3.60,0.00,28.14,31.22,33.59,14.33,47.96,1027.47,2017.00,2254.21,2273.03,2576.05,599.66,591.76,49.40,0000 0000 0000 0000 000000
2016-09-04 02:18:21,0.01,3.60,0.00,28.16,31.25,33.63,14.26,47.85,1027.46,2016.97,2253.83,2272.97,2575.96,599.76,591.78,49.45,0000 0000 0000 0000 000000
2016-09-04 02:23:22,0.06,3.61,0.00,28.19,31.26,33.67,14.39,47.82,1027.52,2016.94,2253.07,2272.45,2575.32,600.32,592.34,49.50,0000 0000 0000 0000 000000
2016-09-04 02:28:24,0.02,3.61,0.00,28.21,31.27,33.67,14.29,47.90,1027.53,2016.89,2252.85,2272.02,2575.01,599.82,591.87,49.55,0000 0000 0000 0000 000000
2016-09-04 02:33:25,-0.02,3.61,0.00,28.24,31.30,33.68,14.37,47.80,1027.47,2016.62,2252.10,2272.00,2574.81,600.13,592.07,49.60,0000 0000 0000 0000 000000
2016-09-04 02:38:26,0.02,3.61,0.00,28.28,31.32,33.72,14.23,47.81,1027.51,2016.26,2251.77,2271.58,2574.09,599.46,591.44,49.65,0000 0000 0000 0000 000000
2016-09-04 02:43:27,0.02,3.61,0.00,28.32,31.33,33.71,14.35,47.92,1027.47,2016.11,2251.05,2271.05,2574.00,600.19,591.98,49.70,0000 0000 0000 0000 000000
2016-09-04 02:48:29,0.02,3.61,0.00,28.33,31.35,33.71,14.31,47.81,1027.51,2016.04,2250.69,2270.97,2573.54,600.07,591.70,49.75,0000 0000 0000 0000 000000
2016-09-04 02:53:30,0.05,3.61,0.00,28.34,31.37,33.76,14.34,47.86,1027.55,2016.01,2250.04,2270.44,2573.02,600.12,591.87,49.80,0000 0000 0000 0000 000000
2016-09-04 02:58:31,0.02,3.61,0.00,28.36,31.39,33.82,14.32,47.88,1027.58,2016.00,2249.72,2270.02,2572.93,599.77,591.56,49.85,0000 0000 0000 0000 000000
2016-09-04 03:03:32,0.03,3.62,0.00,28.40,31.41,33.80,14.30,47.84,1027.48,2016.00,2249.03,2269.98,2572.19,600.01,591.62,49.90,0000 0000 0000 0000 000000
2016-09-04 03:08:34,0.02,3.62,0.00,28.42,31.42,33.81,14.29,47.86,1027.44,2016.00,2248.92,2269.61,2572.01,599.77,591.40,49.95,0000 0000 0000 0000 000000
2016-09-04 03:13:35,0.04,3.62,0.00,28.45,31.45,33.86,14.26,47.79,1027.39,2016.00,2248.12,2269.04,2571.95,599.78,591.34,50.01,0000 0000 0000 0000 000000
2016-09-04 03:18:36,0.01,3.62,0.00,28.46,31.47,33.87,14.32,47.77,1027.38,2015.99,2248.00,2269.00,2571.27,600.06,591.50,50.06,0000 0000 0000 0000 000000
2016-09-04 03:23:37,0.02,3.62,0.00,28.50,31.49,33.87,14.31,47.83,1027.37,2015.95,2247.60,2268.91,2571.00,600.11,591.55,50.11,0000 0000 0000 0000 000000
2016-09-04 03:28:39,0.02,3.62,0.00,28.51,31.51,33.89,14.32,47.80,1027.38,2015.80,2247.02,2268.32,2570.98,599.93,591.27,50.16,0000 0000 0000 0000 000000
2016-09-04 03:33:40,-0.01,3.62,0.00,28.54,31.52,33.91,14.29,47.89,1027.38,2015.65,2246.98,2268.05,2570.69,599.97,591.24,50.21,0000 0000 0000 0000 000000
2016-09-04 03:38:41,-0.00,3.62,0.00,28.57,31.55,33.94,14.28,47.77,1027.38,2015.19,2246.40,2268.00,2570.05,599.77,591.00,50.26,0000 0000 0000 0000 000000
2016-09-04 03:43:42,-0.01,3.62,0.00,28.58,31.57,33.96,14.28,47.88,1027.37,2015.08,2246.01,2267.97,2570.00,600.06,591.27,50.31,0000 0000 0000 0000 000000
2016-09-04 03:48:43,0.03,3.62,0.00,28.60,31.58,33.98,14.30,47.77,1027.37,2015.02,2245.82,2267.50,2569.81,599.99,591.16,50.36,0000 0000 0000 0000 000000
2016-09-04 03:53:45,0.04,3.63,0.00,28.63,31.60,34.01,14.28,47.77,1027.37,2015.00,2245.06,2267.02,2569.06,599.79,590.81,50.41,0000 0000 0000 0000 000000
2016-09-04 03:58:46,0.00,3.63,0.00,28.67,31.62,34.00,14.31,47.84,1027.38,2015.00,2244.87,2266.98,2569.00,600.30,591.33,50.46,0000 0000 0000 0000 000000
2016-09-04 04:03:47,0.05,3.63,0.00,28.69,31.64,34.02,14.32,47.82,1027.38,2014.99,2244.12,2266.67,2568.68,600.14,591.13,50.51,0000 0000 0000 0000 000000
2016-09-04 04:08:48,0.03,3.63,0.00,28.72,31.66,34.06,14.35,47.75,1027.37,2014.97,2244.00,2266.12,2568.06,600.03,590.96,50.56,0000 0000 0000 0000 000000
2016-09-04 04:13:49,0.00,3.63,0.00,28.73,31.67,34.08,14.27,47.74,1027.39,2014.90,2243.80,2266.00,2568.00,599.67,590.68,50.61,0000 0000 0000 0000 000000
2016-09-04 04:18:50,-0.03,3.63,0.00,28.76,31.70,34.09,14.36,47.77,1027.43,2014.62,2243.15,2265.98,2567.92,600.21,590.97,50.66,0000 0000 0000 0000 000000
2016-09-04 04:23:52,0.00,3.63,0.00,28.78,31.72,34.14,14.33,47.83,1027.47,2014.19,2242.99,2265.79,2567.31,600.27,591.15,50.71,0000 0000 0000 0000 000000
2016-09-04 04:28:53,0.04,3.63,0.00,28.77,31.73,34.13,14.29,47.73,1027.46,2014.09,2242.41,2265.13,2567.01,599.99,590.97,50.76,0000 0000 0000 0000 000000
2016-09-04 04:33:54,0.00,3.63,0.00,28.79,31.75,34.17,14.24,47.63,1027.39,2014.05,2242.00,2265.00,2566.99,599.83,590.58,50.81,0000 0000 0000 0000 000000
2016-09-04 04:38:55,0.01,3.63,0.00,28.81,31.77,34.17,14.28,47.77,1027.40,2014.01,2241.97,2264.99,2566.83,599.61,590.39,50.86,0000 0000 0000 0000 000000
2016-09-04 04:43:56,0.03,3.63,0.00,28.83,31.79,34.20,14.23,47.79,1027.38,2014.00,2241.65,2264.93,2566.21,600.01,590.74,50.92,0000 0000 0000 0000 000000
2016-09-04 04:48:58,0.03,3.64,0.00,28.83,31.81,34.21,14.30,47.74,1027.37,2014.00,2241.05,2264.62,2566.00,599.97,590.75,50.97,0000 0000 0000 0000 000000
2016-09-04 04:53:59,0.02,3.64,0.00,28.85,31.83,34.25,14.35,47.70,1027.37,2014.00,2241.00,2264.09,2565.99,599.86,590.53,51.02,0000 0000 0000 0000 000000
2016-09-04 04:59:00,0.01,3.64,0.00,28.88,31.85,34.26,14.27,47.68,1027.39,2014.00,2240.87,2264.00,2565.84,600.18,590.78,51.07,0000 0000 0000 0000 000000
2016-09-04 05:04:01,0.03,3.64,0.00,28.89,31.87,34.29,14.30,47.90,1027.37,2013.97,2240.35,2263.98,2565.25,600.01,590.61,51.12,0000 0000 0000 0000 000000
2016-09-04 05:09:03,-0.00,3.64,0.00,28.91,31.89,34.31,14.31,47.67,1027.38,2013.92,2240.00,2263.94,2565.01,600.36,590.81,51.17,0000 0000 0000 0000 000000
2016-09-04 05:14:04,-0.02,3.64,0.00,28.91,31.90,34.33,14.29,47.75,1027.37,2013.65,2240.00,2263.64,2565.00,599.92,590.33,51.22,0000 0000 0000 0000 000000
2016-09-04 05:19:05,0.01,3.64,0.00,28.94,31.92,34.33,14.26,47.67,1027.37,2013.41,2239.79,2263.12,2564.88,599.96,590.45,51.27,0000 0000 0000 0000 000000
2016-09-04 05:24:06,0.00,3.64,0.00,28.95,31.95,34.33,14.31,47.75,1027.37,2013.14,2239.10,2263.00,2564.30,600.38,590.85,51.32,0000 0000 0000 0000 000000
2016-09-04 05:29:07,-0.00,3.64,0.00,28.96,31.96,34.36,14.30,47.84,1027.36,2013.04,2239.00,2263.00,2564.02,600.21,590.77,51.37,0000 0000 0000 0000 000000
2016-09-04 05:34:09,0.01,3.64,0.00,28.99,31.98,34.41,14.29,47.77,1027.38,2013.03,2238.95,2262.68,2563.95,599.54,590.00,51.42,0000 0000 0000 0000 000000
2016-09-04 05:39:10,0.05,3.64,0.00,29.00,32.00,34.39,14.25,47.77,1027.37,2013.00,2238.42,2262.09,2563.51,600.04,590.45,51.47,0000 0000 0000 0000 000000
2016-09-04 05:44:11,0.01,3.64,0.00,29.02,32.01,34.45,14.23,47.77,1027.38,2013.00,2238.01,2262.00,2563.05,599.79,590.14,51.52,0000 0000 0000 0000 000000
2016-09-04 05:49:13,0.00,3.64,0.00,29.04,32.03,34.44,14.19,47.74,1027.37,2013.00,2237.97,2262.00,2563.00,599.74,590.00,51.57,0000 0000 0000 0000 000000
2016-09-04 05:54:14,0.07,3.65,0.00,29.04,32.05,34.46,14.26,47.82,1027.38,2012.99,2237.16,2261.41,2562.53,599.95,590.21,51.62,0000 0000 0000 0000 000000
2016-09-04 05:59:15,0.01,3.65,0.00,29.06,32.07,34.47,14.22,47.79,1027.37,2012.98,2237.00,2261.03,2562.03,599.87,590.09,51.67,0000 0000 0000 0000 000000
2016-09-04 06:04:16,0.00,3.65,0.00,29.08,32.08,34.54,14.34,47.79,1027.38,2012.95,2236.87,2261.00,2562.00,600.22,590.44,51.72,0000 0000 0000 0000 000000
2016-09-04 06:09:17,0.01,3.65,0.00,29.09,32.10,34.51,14.30,47.67,1027.37,2012.91,2236.29,2261.00,2561.98,600.06,590.27,51.77,0000 0000 0000 0000 000000
2016-09-04 06:14:19,0.02,3.65,0.00,29.11,32.12,34.50,14.37,47.88,1027.38,2012.88,2236.01,2260.95,2561.77,600.45,590.63,51.82,0000 0000 0000 0000 000000
2016-09-04 06:19:20,0.01,3.65,0.00,29.12,32.13,34.54,14.24,47.68,1027.37,2012.68,2235.98,2260.56,2561.14,599.73,589.83,51.88,0000 0000 0000 0000 000000
2016-09-04 06:24:21,-0.00,3.65,0.00,29.14,32.15,34.59,14.27,47.80,1027.38,2012.40,2235.52,2260.06,2561.00,600.12,590.25,51.93,0000 0000 0000 0000 000000
2016-09-04 06:29:22,-0.01,3.65,0.00,29.15,32.16,34.58,14.20,47.81,1027.38,2012.06,2235.04,2260.00,2560.98,599.71,589.90,51.98,0000 0000 0000 0000 000000
2016-09-04 06:34:24,0.01,3.65,0.00,29.17,32.18,34.61,14.33,47.70,1027.37,2012.01,2235.00,2259.99,2560.70,599.72,589.83,52.03,0000 0000 0000 0000 000000
2016-09-04 06:39:24,0.01,3.65,0.00,29.18,32.20,34.63,14.29,47.65,1027.37,2012.01,2234.86,2259.95,2560.19,599.92,589.89,52.08,0000 0000 0000 0000 000000
2016-09-04 06:44:26,0.03,3.65,0.00,29.19,32.21,34.61,14.31,47.79,1027.36,2012.01,2234.24,2259.68,2560.01,600.09,589.95,52.13,0000 0000 0000 0000 000000
2016-09-04 06:49:28,0.02,3.65,0.00,29.23,32.23,34.60,14.33,47.79,1027.36,2012.00,2234.02,2259.21,2560.00,600.28,590.12,52.18,0000 0000 0000 0000 000000
2016-09-04 06:54:29,0.00,3.65,0.00,29.26,32.25,34.62,14.20,47.66,1027.36,2012.00,2233.99,2259.01,2559.96,599.81,589.61,52.23,0000 0000 0000 0000 000000
2016-09-04 06:59:30,0.03,3.65,0.00,29.26,32.26,34.64,14.26,47.83,1027.36,2012.00,2233.69,2259.00,2559.62,600.20,589.92,52.28,0000 0000 0000 0000 000000
2016-09-04 07:04:31,0.02,3.66,0.00,29.27,32.27,34.67,14.22,47.86,1027.36,2012.00,2233.04,2258.92,2559.02,599.73,589.59,52.33,0000 0000 0000 0000 000000
2016-09-04 07:09:32,0.02,3.66,0.00,29.30,32.30,34.69,14.20,47.76,1027.36,2012.00,2233.00,2258.45,2559.00,599.73,589.53,52.38,0000 0000 0000 0000 000000
2016-09-04 07:14:33,0.02,3.66,0.00,29.30,32.31,34.72,14.27,47.66,1027.36,2011.99,2232.76,2258.06,2558.99,599.80,589.58,52.43,0000 0000 0000 0000 000000
2016-09-04 07:19:34,0.02,3.66,0.00,29.33,32.32,34.73,14.24,47.70,1027.36,2011.97,2232.11,2258.00,2558.90,600.09,589.80,52.48,0000 0000 0000 0000 000000
2016-09-04 07:24:36,0.01,3.66,0.00,29.34,32.35,34.74,14.30,47.77,1027.36,2011.90,2232.00,2257.99,2558.28,600.32,590.05,52.53,0000 0000 0000 0000 000000
2016-09-04 07:29:37,0.00,3.66,0.00,29.37,32.36,34.75,14.22,47.61,1027.36,2011.90,2231.98,2257.97,2558.02,599.97,589.63,52.58,0000 0000 0000 0000 000000
2016-09-04 07:34:38,0.00,3.66,0.00,29.41,32.37,34.76,14.28,47.63,1027.36,2011.59,2231.44,2257.52,2558.00,599.90,589.51,52.63,0000 0000 0000 0000 000000
2016-09-04 07:39:39,-0.00,3.66,0.00,29.43,32.40,34.78,14.31,47.63,1027.36,2011.33,2231.03,2257.10,2557.96,600.10,589.75,52.68,0000 0000 0000 0000 000000
2016-09-04 07:44:40,-0.01,3.66,0.00,29.45,32.41,34.79,14.28,47.98,1027.36,2011.08,2231.00,2257.00,2557.47,600.16,589.62,52.73,0000 0000 0000 0000 000000
2016-09-04 07:49:42,0.02,3.66,0.00,29.48,32.42,34.79,14.15,47.69,1027.36,2011.01,2230.56,2256.99,2557.08,599.79,589.29,52.79,0000 0000 0000 0000 000000
2016-09-04 07:54:43,0.01,3.66,0.00,29.50,32.44,34.80,14.33,47.71,1027.36,2011.00,2230.04,2256.89,2557.00,600.14,589.51,52.84,0000 0000 0000 0000 000000
2016-09-04 07:59:44,0.02,3.66,0.00,29.52,32.45,34.80,14.26,47.68,1027.36,2011.00,2230.00,2256.43,2556.95,600.15,589.51,52.89,0000 0000 0000 0000 000000
2016-09-04 08:04:45,0.05,3.67,0.00,29.53,32.47,34.82,14.21,47.74,1027.36,2011.00,2229.64,2256.05,2556.26,599.91,589.30,52.94,0000 0000 0000 0000 000000
2016-09-04 08:09:46,0.01,3.67,0.00,29.59,32.49,34.84,14.23,47.72,1027.36,2010.99,2229.06,2256.00,2556.01,599.99,589.22,52.99,0000 0000 0000 0000 000000
2016-09-04 08:14:47,0.04,3.67,0.00,29.63,32.51,34.84,14.28,47.66,1027.36,2010.98,2228.95,2255.69,2555.70,600.23,589.33,53.04,0000 0000 0000 0000 000000
2016-09-04 08:19:49,0.04,3.67,0.00,29.67,32.53,34.84,14.23,47.81,1027.37,2010.95,2228.39,2255.06,2555.06,600.13,589.18,53.09,0000 0000 0000 0000 000000
2016-09-04 08:24:50,-0.00,3.67,0.00,29.70,32.55,34.87,14.28,47.68,1027.38,2010.82,2228.01,2255.00,2555.00,600.13,589.10,53.14,0000 0000 0000 0000 000000
2016-09-04 08:29:52,-0.03,3.67,0.00,29.75,32.57,34.90,14.28,47.76,1027.37,2010.62,2227.96,2254.96,2554.87,600.05,588.93,53.19,0000 0000 0000 0000 000000
2016-09-04 08:34:53,0.04,3.67,0.00,29.78,32.60,34.92,14.20,47.37,1027.38,2010.25,2227.18,2254.29,2554.08,600.01,588.85,53.24,0000 0000 0000 0000 000000
2016-09-04 08:39:54,-0.00,3.67,0.00,29.80,32.62,34.97,14.29,47.58,1027.38,2010.07,2227.00,2254.00,2553.97,600.45,589.28,53.29,0000 0000 0000 0000 000000
2016-09-04 08:44:55,0.02,3.67,0.00,29.81,32.64,35.00,14.22,47.68,1027.38,2010.00,2226.67,2253.99,2553.54,599.96,588.86,53.34,0000 0000 0000 0000 000000
2016-09-04 08:49:57,0.02,3.67,0.00,29.82,32.66,35.05,14.29,47.67,1027.39,2010.00,2226.16,2253.91,2553.12,600.04,588.71,53.39,0000 0000 0000 0000 000000
2016-09-04 08:54:58,0.02,3.68,0.00,29.82,32.69,35.06,14.22,47.52,1027.38,2010.00,2226.00,2253.48,2553.01,599.97,588.82,53.44,0000 0000 0000 0000 000000
2016-09-04 08:59:59,0.01,3.68,0.00,29.81,32.71,35.10,14.23,47.56,1027.40,2009.99,2225.97,2253.05,2552.99,600.04,588.75,53.49,0000 0000 0000 0000 000000
2016-09-04 09:05:01,0.03,3.68,0.00,29.81,32.73,35.12,14.20,47.55,1027.44,2009.98,2225.42,2253.00,2552.75,600.03,588.79,53.54,0000 0000 0000 0000 000000
2016-09-04 09:10:02,0.01,3.68,0.00,29.81,32.75,35.17,14.20,47.53,1027.56,2009.93,2225.03,2252.99,2552.17,600.09,589.00,53.59,0000 0000 0000 0000 000000
2016-09-04 09:15:04,-0.02,3.68,0.00,29.81,32.77,35.20,14.22,47.55,1027.68,2009.70,2225.00,2252.90,2552.00,599.99,588.94,53.64,0000 0000 0000 0000 000000
2016-09-04 09:20:05,0.03,3.68,0.00,29.82,32.79,35.19,14.21,47.63,1027.75,2009.60,2224.78,2252.33,2552.00,600.13,589.18,53.70,0000 0000 0000 0000 000000
2016-09-04 09:25:06,0.00,3.68,0.00,29.84,32.80,35.25,14.24,47.57,1027.83,2009.30,2224.12,2252.03,2551.83,600.08,589.08,53.75,0000 0000 0000 0000 000000
2016-09-04 09:30:07,-0.01,3.68,0.00,29.86,32.82,35.25,14.25,47.51,1027.85,2009.12,2224.00,2252.00,2551.31,600.38,589.36,53.80,0000 0000 0000 0000 000000
2016-09-04 09:35:08,0.00,3.68,0.00,29.85,32.82,35.27,14.26,47.56,1027.85,2009.07,2224.00,2252.00,2551.03,600.05,588.94,53.85,0000 0000 0000 0000 000000
2016-09-04 09:40:10,-0.00,3.68,0.00,29.85,32.84,35.29,14.25,47.50,1027.85,2009.04,2223.96,2251.99,2551.00,599.87,588.83,53.90,0000 0000 0000 0000 000000
2016-09-04 09:45:11,0.01,3.68,0.00,29.86,32.85,35.26,14.25,47.53,1027.85,2009.04,2223.71,2251.92,2551.00,600.41,589.37,53.95,0000 0000 0000 0000 000000
2016-09-04 09:50:12,0.01,3.68,0.00,29.86,32.86,35.26,14.30,47.67,1027.85,2009.00,2223.17,2251.78,2550.98,600.45,589.38,54.00,0000 0000 0000 0000 000000
2016-09-04 09:55:13,0.03,3.68,0.00,29.87,32.87,35.28,14.24,47.52,1027.85,2009.00,2223.02,2251.33,2550.79,600.27,589.18,54.05,0000 0000 0000 0000 000000
2016-09-04 10:00:14,0.02,3.68,0.00,29.87,32.88,35.30,14.24,47.51,1027.85,2009.00,2223.00,2251.04,2550.23,600.07,589.00,54.10,0000 0000 0000 0000 000000
2016-09-04 10:05:15,0.00,3.68,0.00,29.87,32.90,35.29,14.29,47.51,1027.85,2009.00,2222.98,2251.00,2550.04,600.43,589.31,54.15,0000 0000 0000 0000 000000
2016-09-04 10:10:17,0.02,3.68,0.00,29.88,32.90,35.31,14.19,47.55,1027.85,2009.00,2222.63,2251.00,2550.00,599.99,588.93,54.20,0000 0000 0000 0000 000000
2016-09-04 10:15:18,0.01,3.68,0.00,29.89,32.91,35.33,14.25,47.67,1027.85,2008.99,2222.08,2250.99,2550.00,599.91,588.77,54.25,0000 0000 0000 0000 000000
2016-09-04 10:20:19,0.00,3.69,0.00,29.88,32.92,35.34,14.29,47.58,1027.85,2008.99,2222.00,2250.99,2549.99,600.05,588.95,54.30,0000 0000 0000 0000 000000
2016-09-04 10:25:21,0.00,3.69,0.00,29.86,32.92,35.34,14.33,47.64,1027.85,2008.99,2222.00,2250.92,2549.89,599.91,588.88,54.35,0000 0000 0000 0000 000000
2016-09-04 10:30:22,0.01,3.69,0.00,29.87,32.93,35.37,14.22,47.57,1027.85,2008.98,2221.97,2250.69,2549.61,600.04,589.05,54.40,0000 0000 0000 0000 000000
2016-09-04 10:35:23,0.02,3.69,0.00,29.85,32.95,35.39,14.25,47.61,1027.85,2008.98,2221.90,2250.55,2549.36,599.97,588.98,54.45,0000 0000 0000 0000 000000
2016-09-04 10:40:25,0.03,3.69,0.00,29.84,32.95,35.40,14.27,47.58,1027.85,2008.94,2221.26,2250.09,2549.03,600.05,588.99,54.50,0000 0000 0000 0000 000000
2016-09-04 10:45:26,0.00,3.69,0.00,29.82,32.95,35.44,14.30,47.64,1027.85,2008.86,2221.01,2250.01,2549.00,600.38,589.43,54.55,0000 0000 0000 0000 000000
2016-09-04 10:50:27,0.00,3.69,0.00,29.80,32.95,35.46,14.23,47.57,1027.85,2008.89,2221.00,2250.00,2549.00,600.04,589.16,54.61,0000 0000 0000 0000 000000
2016-09-04 10:55:29,-0.00,3.69,0.00,29.78,32.95,35.48,14.32,47.53,1027.85,2008.87,2220.95,2250.00,2549.00,599.98,589.05,54.66,0000 0000 0000 0000 000000
2016-09-04 11:00:30,-0.01,3.69,0.00,29.76,32.95,35.52,14.24,47.65,1027.83,2008.76,2220.81,2250.00,2548.98,599.89,588.98,54.71,0000 0000 0000 0000 000000
2016-09-04 11:05:31,0.02,3.69,0.00,29.75,32.95,35.52,14.20,47.47,1027.81,2008.70,2220.32,2249.99,2548.78,599.70,589.02,54.76,0000 0000 0000 0000 000000
2016-09-04 11:10:33,0.03,3.69,0.00,29.72,32.95,35.57,14.24,47.52,1027.82,2008.71,2220.04,2249.97,2548.47,599.99,589.23,54.81,0000 0000 0000 0000 000000
2016-09-04 11:15:34,-0.00,3.69,0.00,29.71,32.95,35.59,14.26,47.64,1027.83,2008.59,2220.00,2249.94,2548.16,599.93,589.15,54.86,0000 0000 0000 0000 000000
2016-09-04 11:20:35,0.01,3.69,0.00,29.70,32.95,35.58,14.34,47.59,1027.82,2008.66,2220.00,2249.92,2548.11,600.05,589.34,54.91,0000 0000 0000 0000 000000
2016-09-04 11:25:37,0.02,3.69,0.00,29.68,32.94,35.63,14.26,47.52,1027.81,2008.82,2220.00,2249.89,2548.07,599.82,589.13,54.96,0000 0000 0000 0000 000000
2016-09-04 11:30:38,0.01,3.69,0.00,29.66,32.93,35.63,14.30,47.48,1027.82,2008.91,2219.97,2249.80,2548.02,600.03,589.35,55.01,0000 0000 0000 0000 000000
2016-09-04 11:35:39,0.02,3.69,0.00,29.64,32.92,35.65,14.30,47.59,1027.81,2008.90,2219.92,2249.59,2548.00,600.22,589.60,55.06,0000 0000 0000 0000 000000
2016-09-04 11:40:41,0.01,3.69,0.00,29.62,32.92,35.66,14.28,47.67,1027.80,2008.90,2219.66,2249.50,2548.01,600.00,589.41,55.11,0000 0000 0000 0000 000000
2016-09-04 11:45:42,0.02,3.69,0.00,29.61,32.91,35.64,14.30,47.61,1027.78,2008.90,2219.20,2249.26,2548.00,600.08,589.54,55.16,0000 0000 0000 0000 000000
2016-09-04 11:50:44,0.01,3.70,0.00,29.58,32.90,35.62,14.36,47.57,1027.78,2008.92,2219.04,2249.15,2548.00,600.20,589.79,55.21,0000 0000 0000 0000 000000
2016-09-04 11:55:45,0.00,3.70,0.00,29.57,32.90,35.64,14.28,47.56,1027.76,2008.97,2219.01,2249.14,2548.00,600.00,589.64,55.26,0000 0000 0000 0000 000000
2016-09-04 12:00:46,0.00,3.70,0.00,29.53,32.89,35.64,14.32,47.52,1027.72,2008.98,2219.00,2249.09,2548.00,600.12,589.62,55.31,0000 0000 0000 0000 000000
2016-09-04 12:05:47,-0.00,3.70,0.00,29.52,32.87,35.64,14.29,47.70,1027.73,2008.99,2219.00,2249.04,2547.99,599.86,589.38,55.36,0000 0000 0000 0000 000000
2016-09-04 12:10:48,0.00,3.70,0.00,29.50,32.87,35.61,14.24,47.59,1027.66,2008.99,2218.99,2249.04,2547.99,599.74,589.29,55.41,0000 0000 0000 0000 000000
2016-09-04 12:15:50,0.00,3.70,0.00,29.47,32.86,35.62,14.34,47.58,1027.73,2008.99,2218.98,2249.05,2547.99,600.38,589.88,55.47,0000 0000 0000 0000 000000
2016-09-04 12:20:51,0.00,3.70,0.00,29.45,32.85,35.60,14.22,47.61,1027.73,2008.99,2218.95,2249.04,2547.97,599.74,589.45,55.52,0000 0000 0000 0000 000000
2016-09-04 12:25:52,0.00,3.70,0.00,29.41,32.84,35.57,14.30,47.55,1027.77,2008.99,2218.87,2249.01,2547.91,600.06,589.86,55.57,0000 0000 0000 0000 000000
2016-09-04 12:30:53,0.01,3.70,0.00,29.40,32.82,35.59,14.32,47.56,1027.78,2008.99,2218.53,2249.00,2547.85,600.09,589.74,55.62,0000 0000 0000 0000 000000
2016-09-04 12:35:54,0.01,3.70,0.00,29.40,32.82,35.57,14.29,47.63,1027.77,2008.99,2218.31,2249.00,2547.80,600.13,589.97,55.67,0000 0000 0000 0000 000000
2016-09-04 12:40:56,0.01,3.70,0.00,29.38,32.80,35.56,14.37,47.63,1027.79,2009.00,2218.05,2249.00,2547.43,600.44,590.36,55.72,0000 0000 0000 0000 000000
2016-09-04 12:45:57,0.00,3.70,0.00,29.36,32.80,35.55,14.28,47.67,1027.76,2009.00,2218.02,2249.00,2547.34,599.78,589.61,55.77,0000 0000 0000 0000 000000
2016-09-04 12:50:58,0.00,3.70,0.00,29.34,32.78,35.55,14.30,47.67,1027.73,2009.00,2218.01,2249.00,2547.24,600.06,590.12,55.82,0000 0000 0000 0000 000000
2016-09-04 12:55:59,-0.00,3.70,0.00,29.32,32.77,35.52,14.31,47.73,1027.63,2009.02,2218.00,2249.00,2547.32,599.93,589.70,55.87,0000 0000 0000 0000 000000